This demonstration page uses our WeatherBlox Daily Observations layout. Learn more.

Left ArrowRight Arrow

Hourly Observations for February 28, 2016

Temp ( °F °C ) Dew Point ( °F °C ) Humidity (%) Winds ( mph kmh ) Pressure ( in mb ) Visibility ( mi km ) Precip ( " mm )
12:53 am 00:53 Clear 47 8.3 41 5 80 80 WNW 5 7 30.15 1021 10 16 0.00 0.00
1:53 am 01:53 Clear 45 7.2 40 4.4 83 83 E 6 9 30.16 1021 10 16 0.00 0.00
2:53 am 02:53 Clear 45 7.2 40 4.4 83 83 Calm 30.14 1021 10 16 0.00 0.00
3:53 am 03:53 Clear 45 7.2 40 4.4 83 83 NW 5 7 30.16 1021 10 16 0.00 0.00
4:53 am 04:53 Clear 43 6.1 38 3.3 82 82 Calm 30.15 1021 10 16 0.00 0.00
5:53 am 05:53 Clear 42 5.6 38 3.3 85 85 NW 3 6 30.14 1021 10 16 0.00 0.00
6:53 am 06:53 Mostly Sunny 43 6.1 38 3.3 82 82 Calm 30.15 1021 10 16 0.00 0.00
7:53 am 07:53 Cloudy 45 7.2 40 4.4 83 83 Calm 30.18 1022 10 16 0.00 0.00
8:53 am 08:53 Cloudy 48 8.9 42 5.6 80 80 Calm 30.20 1023 10 16 0.00 0.00
9:53 am 09:53 Cloudy 50 10 44 6.7 80 80 N 3 6 30.20 1023 10 16 0.00 0.00
10:53 am 10:53 Cloudy 54 12.2 44 6.7 69 69 Calm 30.21 1023 10 16 0.00 0.00
11:53 am 11:53 Partly Cloudy 57 13.9 46 7.8 67 67 NNE 3 6 30.19 1022 10 16 0.00 0.00
12:53 pm 12:53 Partly Cloudy 60 15.6 45 7.2 58 58 Calm 30.17 1022 10 16 0.00 0.00
1:53 pm 13:53 Sunny 63 17.2 44 6.7 50 50 SE 3 6 30.16 1021 10 16 0.00 0.00
2:53 pm 14:53 Sunny 64 17.8 46 7.8 52 52 S 3 6 30.16 1021 10 16 0.00 0.00
3:53 pm 15:53 Sunny 65 18.3 45 7.2 49 49 SSW 3 6 30.16 1021 10 16 0.00 0.00
4:53 pm 16:53 Sunny 65 18.3 45 7.2 49 49 Calm 30.16 1021 10 16 0.00 0.00
5:53 pm 17:53 Sunny 63 17.2 48 8.9 58 58 Calm 30.17 1022 10 16 0.00 0.00
6:53 pm 18:53 Clear 61 16.1 48 8.9 63 63 Calm 30.19 1022 10 16 0.00 0.00
7:53 pm 19:53 Clear 58 14.4 46 7.8 65 65 Calm 30.18 1022 10 16 0.00 0.00
8:53 pm 20:53 Clear 54 12.2 45 7.2 72 72 Calm 30.19 1022 10 16 0.00 0.00
9:53 pm 21:53 Clear 52 11.1 45 7.2 77 77 N 3 6 30.20 1023 10 16 0.00 0.00
10:53 pm 22:53 Clear 53 11.7 43 6.1 69 69 N 6 9 30.20 1023 10 16 0.00 0.00
11:53 pm 23:53 Clear 49 9.4 43 6.1 80 80 NNW 3 6 30.20 1023 10 16 0.00 0.00

Powered by AerisWeather